Location: Charlottesville
(38.0290°N, 78.4770°W)
Time: 15:10:23
(UTC-05:00)

Vanguard 2 - All Passes

Search period start: 21 January 2018 00:00
Search period end: 31 January 2018 00:00
Orbit: 553 x 2939 km, 32.9° (Epoch: 21 January)

Date Brightness Start Highest point End Pass type
(mag) Time Alt. Az. Time Alt. Az. Time Alt. Az.
21 Jan - 01:46:00 10° S 01:51:11 23° SE 01:58:32 10° E visible
21 Jan - 03:51:25 10° WSW 03:59:22 58° SSE 04:12:38 10° E visible
21 Jan - 05:59:12 10° W 06:09:49 70° S 06:26:19 10° ESE visible
21 Jan - 08:08:22 10° W 08:21:27 55° SSW 08:38:31 10° SE daylight
21 Jan - 10:20:01 10° W 10:32:49 29° SW 10:46:38 10° SSE daylight
22 Jan - 02:03:02 10° SSW 02:08:43 31° SE 02:17:22 10° E visible
22 Jan - 04:09:15 10° WSW 04:17:22 64° SSE 04:31:03 10° E visible
22 Jan - 06:17:16 10° W 06:28:01 67° S 06:44:33 10° ESE visible
22 Jan - 08:26:40 10° W 08:39:33 47° SSW 08:56:02 10° SE daylight
22 Jan - 10:39:29 10° W 10:50:39 22° SW 11:02:33 10° S daylight
23 Jan - 02:20:24 10° SW 02:26:24 40° SSE 02:35:57 10° E visible
23 Jan - 04:27:09 10° WSW 04:35:27 67° S 04:49:26 10° E visible
23 Jan - 06:35:22 10° W 06:46:13 62° SSW 07:02:39 10° ESE visible
23 Jan - 08:45:06 10° W 08:57:37 39° SSW 09:13:15 10° SSE daylight
23 Jan - 11:00:04 10° WSW 11:08:28 16° SW 11:17:16 10° SSW daylight
24 Jan - 00:34:00 10° SSE 00:36:50 14° SE 00:40:16 10° ESE night (unlit)
24 Jan - 02:37:59 10° SW 02:44:11 48° SSE 02:54:25 10° E visible
24 Jan - 04:45:08 10° W 04:53:35 68° S 05:07:47 10° E visible
24 Jan - 06:53:29 10° W 07:04:23 56° SSW 07:20:34 10° SE visible
24 Jan - 09:03:48 10° W 09:15:37 32° SSW 09:30:02 10° SSE daylight
25 Jan - 00:50:22 10° S 00:54:20 20° SE 00:59:39 10° E night (unlit)
25 Jan - 02:55:44 10° WSW 03:02:06 55° SSE 03:12:49 10° E visible
25 Jan - 05:03:08 10° W 05:11:44 66° S 05:26:04 10° ESE visible
25 Jan - 07:11:41 10° W 07:22:32 48° SSW 07:38:15 10° SE daylight
25 Jan - 09:22:53 10° W 09:33:37 25° SW 09:46:17 10° S daylight
26 Jan - 01:07:26 10° SSW 01:11:56 28° SSE 01:18:26 10° E visible
26 Jan - 03:13:35 10° WSW 03:20:06 61° S 03:31:11 10° E visible
26 Jan - 05:21:10 10° W 05:29:53 61° S 05:44:15 10° ESE visible
26 Jan - 07:30:01 10° W 07:40:39 41° SSW 07:55:38 10° SE daylight
26 Jan - 09:42:45 10° WSW 09:51:36 18° SW 10:01:39 10° S daylight
27 Jan - 01:24:51 10° SW 01:29:38 36° SSE 01:36:56 10° E visible
27 Jan - 03:31:29 10° WSW 03:38:09 63° S 03:49:30 10° E visible
27 Jan - 05:39:14 10° W 05:48:02 55° SSW 06:02:15 10° ESE visible
27 Jan - 07:48:32 10° W 07:58:45 33° SSW 08:12:38 10° SSE daylight
27 Jan - 10:04:40 10° WSW 10:09:36 12° SW 10:14:52 10° SSW daylight
27 Jan - 23:38:31 10° SSE 23:40:14 12° SE 23:42:07 10° ESE night (unlit)
28 Jan - 01:42:29 10° SW 01:47:28 45° SSE 01:55:19 10° E visible
28 Jan - 03:49:27 10° W 03:56:14 63° S 04:07:47 10° ESE visible
28 Jan - 05:57:23 10° W 06:06:11 48° SSW 06:20:04 10° SE visible
28 Jan - 08:07:23 10° W 08:16:51 26° SSW 08:29:09 10° SSE daylight
28 Jan - 23:54:46 10° S 23:57:50 18° SSE 00:01:37 10° ESE night (unlit)
29 Jan - 02:00:15 10° WSW 02:05:23 52° SSE 02:13:38 10° E visible
29 Jan - 04:07:26 10° W 04:14:20 59° S 04:26:00 10° ESE visible
29 Jan - 06:15:37 10° W 06:24:19 40° SSW 06:37:37 10° SE visible
29 Jan - 08:26:51 10° WSW 08:34:58 19° SSW 08:44:53 10° S daylight
30 Jan - 00:11:52 10° SSW 00:15:31 25° SSE 00:20:19 10° E night (unlit)
30 Jan - 02:18:07 10° WSW 02:23:23 56° S 02:31:56 10° E visible
30 Jan - 04:25:29 10° W 04:32:26 53° S 04:44:04 10° ESE visible
30 Jan - 06:34:02 10° W 06:42:27 33° SSW 06:54:48 10° SSE visible
30 Jan - 08:47:46 10° WSW 08:53:04 13° SW 08:59:03 10° SSW daylight
